Location: Unspecified
(0.0000°N, 0.0000°E)
Time: 19:24:51
(UTC+00:00)

Transit 4A - All Passes

Search period start: 18 April 2019 00:00
Search period end: 28 April 2019 00:00
Orbit: 863 x 982 km, 66.8° (Epoch: 17 April)

Date Brightness Start Highest point End Pass type
(mag) Time Alt. Az. Time Alt. Az. Time Alt. Az.
18 Apr - 08:46:55 10° N 08:52:36 35° ENE 08:58:10 10° SE daylight
18 Apr - 10:34:12 10° WNW 10:38:40 20° WSW 10:43:06 10° SSW daylight
18 Apr - 20:02:11 10° SE 20:03:52 11° ESE 20:05:34 10° E night (unlit)
18 Apr - 21:44:15 10° SW 21:49:54 52° WNW 21:55:43 10° N night (unlit)
19 Apr - 08:55:42 10° N 09:01:56 59° ENE 09:08:00 10° SSE daylight
19 Apr - 10:46:19 10° W 10:48:00 11° WSW 10:49:41 10° SW daylight
19 Apr - 20:08:55 10° SSE 20:13:10 21° ESE 20:17:29 10° ENE night (unlit)
19 Apr - 21:54:10 10° SW 21:59:13 30° WNW 22:04:23 10° N night (unlit)
20 Apr - 09:04:53 10° NNW 09:11:13 82° WSW 09:17:25 10° SSE daylight
20 Apr - 20:17:09 10° S 20:22:28 36° ESE 20:27:51 10° NE night (unlit)
20 Apr - 22:04:49 10° WSW 22:08:33 17° WNW 22:12:21 10° NNW night (unlit)
21 Apr - 07:31:06 10° NE 07:34:20 14° ENE 07:37:32 10° E daylight
21 Apr - 09:14:27 10° NW 09:20:30 48° WSW 09:26:26 10° S daylight
21 Apr - 20:25:57 10° S 20:31:44 64° ESE 20:37:39 10° NNE night (unlit)
22 Apr - 07:38:39 10° NNE 07:43:42 25° ENE 07:48:40 10° ESE daylight
22 Apr - 09:24:30 10° NW 09:29:47 28° WSW 09:35:00 10° SSW daylight
22 Apr - 20:35:11 10° SSW 20:41:01 75° WNW 20:47:00 10° NNE night (unlit)
23 Apr - 07:47:06 10° N 07:53:02 42° ENE 07:58:50 10° SE daylight
23 Apr - 09:35:19 10° WNW 09:39:06 17° WSW 09:42:50 10° SSW daylight
23 Apr - 19:01:14 10° SE 19:04:16 14° ESE 19:07:20 10° ENE visible
23 Apr - 20:44:48 10° SW 20:50:19 43° WNW 20:55:58 10° N visible
24 Apr - 07:56:03 10° NNW 08:02:21 72° ENE 08:08:29 10° SSE daylight
24 Apr - 19:08:50 10° SSE 19:13:35 26° ESE 19:18:24 10° NE visible
24 Apr - 20:54:56 10° WSW 20:59:38 25° WNW 21:04:25 10° NNW visible
25 Apr - 08:05:22 10° NNW 08:11:38 68° WSW 08:17:45 10° SSE daylight
25 Apr - 19:17:19 10° S 19:22:51 44° ESE 19:28:31 10° NE visible
25 Apr - 21:06:03 10° W 21:08:59 14° WNW 21:11:57 10° NW visible
26 Apr - 06:30:44 10° NNE 06:34:47 18° ENE 06:38:47 10° ESE daylight
26 Apr - 08:15:06 10° NW 08:20:55 40° WSW 08:26:37 10° S daylight
26 Apr - 19:26:17 10° SSW 19:32:08 78° ESE 19:38:09 10° NNE visible
27 Apr - 06:38:42 10° N 06:44:08 30° ENE 06:49:27 10° SE daylight
27 Apr - 08:25:22 10° WNW 08:30:13 23° WSW 08:34:59 10° SSW daylight
27 Apr - 19:35:39 10° SSW 19:41:25 61° WNW 19:47:21 10° N visible
